Theta_e
346 345 347 349 350 351 352 352 353 354 354 355 356 356 356 356 356 357 356 356 356 356 356 356 356 355 355 355 355 355 355 355 355 355 355 354 354 355 355 356 356 357 355 353 353 352 354 356 356 356 350 343 345 346 344 345 344 340 336 336 338 341 343 343 341 338 339 342 343 343 343 342 342 341 341 341 342 345 346 345 344 344 344 345 345
346 345 346 348 349 350 352 352 353 354 354 355 356 355 356 355 355 356 356 356 356 355 356 356 356 356 356 356 355 355 355 355 355 355 354 354 355 355 355 356 355 356 355 354 353 353 356 357 357 354 347 346 348 345 343 343 338 334 335 340 342 342 342 342 338 334 338 342 342 344 345 343 341 341 342 341 342 344 345 344 343 344 345 345 345
347 346 345 346 348 348 350 352 352 354 354 354 355 354 355 355 355 356 356 356 356 355 356 356 356 356 356 357 356 355 355 355 355 355 354 355 355 354 355 355 356 356 356 355 352 353 356 356 355 351 346 348 347 344 343 337 333 335 338 342 343 342 342 342 338 332 335 340 342 346 349 347 345 343 340 339 342 343 344 344 342 343 346 344 343
348 347 345 346 346 347 349 351 351 353 353 353 354 354 354 354 354 355 356 356 356 355 356 356 355 356 356 357 356 355 355 355 354 354 354 356 355 355 355 355 356 356 356 356 352 353 357 356 353 350 347 349 346 344 340 333 335 339 341 341 341 342 342 341 339 333 332 338 344 347 347 348 350 345 339 338 341 341 341 342 340 341 345 343 342
348 347 346 347 345 346 348 350 351 351 351 352 353 353 353 353 354 355 356 356 356 355 356 357 356 356 357 356 356 355 355 355 355 355 355 355 357 357 357 356 356 356 357 357 353 353 356 355 352 349 348 348 346 344 337 333 338 340 341 342 340 342 343 341 340 336 336 339 342 347 347 350 354 346 341 338 337 338 338 338 338 341 342 342 341
347 347 346 346 346 346 348 349 351 351 351 351 352 352 352 352 353 354 356 357 356 355 356 357 356 357 357 356 357 357 356 356 356 357 356 356 357 358 358 357 357 357 358 357 354 354 356 355 353 349 346 346 346 343 337 336 340 340 341 342 340 342 342 340 339 338 340 340 338 342 344 347 349 345 346 343 336 334 335 335 336 337 338 338 338
346 347 346 346 346 346 347 348 350 350 350 351 351 351 352 352 352 353 356 357 356 355 356 357 356 357 357 356 357 357 357 357 356 357 357 356 356 357 358 358 358 358 358 357 356 355 357 355 353 349 345 346 346 341 336 338 341 340 341 340 339 340 341 340 339 339 341 340 339 339 336 338 340 342 348 348 342 336 332 332 332 333 334 334 336
346 347 346 346 346 346 346 347 349 350 350 351 351 351 352 353 353 353 355 356 356 355 356 357 356 357 357 357 357 357 358 358 357 357 357 358 358 358 358 358 358 358 357 357 357 357 357 355 351 349 346 346 345 336 332 338 341 340 340 340 339 340 340 341 340 340 339 338 340 338 335 336 336 337 341 344 347 346 339 335 332 330 333 334 335
347 346 346 346 345 346 347 347 348 349 350 351 351 351 351 352 353 354 355 356 356 356 356 356 356 356 356 357 357 357 357 358 358 358 358 359 359 358 359 358 358 359 358 358 358 358 357 354 350 348 348 347 345 338 334 339 340 338 339 340 340 341 340 340 340 340 338 338 339 339 338 338 335 335 337 337 343 346 344 340 334 330 332 333 335
346 346 347 346 345 345 347 347 347 348 350 351 352 351 351 352 353 354 355 356 356 356 357 356 356 356 356 357 357 357 357 357 359 359 359 359 359 358 358 359 358 358 358 358 358 358 356 354 350 349 350 347 346 343 336 337 338 337 340 341 341 340 339 339 339 339 338 337 338 338 336 337 336 336 337 337 338 338 340 339 334 330 330 331 333
346 347 347 346 344 345 346 347 347 348 349 351 352 352 352 353 353 354 355 356 357 357 357 357 357 357 357 357 357 357 357 357 358 358 358 359 358 358 358 358 359 359 359 358 358 357 355 353 350 349 350 346 347 344 335 336 340 340 341 342 341 339 337 339 339 338 339 338 338 336 334 336 338 338 337 337 337 336 339 340 334 332 332 330 331
346 346 347 347 345 345 346 347 348 347 349 351 353 353 353 353 354 354 355 356 357 357 357 357 357 357 357 357 357 357 357 357 357 357 358 358 357 357 357 358 359 359 359 359 358 357 354 352 350 350 349 346 347 343 333 337 342 341 341 341 341 338 336 339 340 338 338 336 335 335 334 336 338 337 336 335 335 335 338 338 334 334 335 332 330
344 346 347 347 347 346 346 347 347 348 349 350 353 354 354 354 355 355 354 355 356 358 358 357 358 357 357 357 356 357 357 357 357 356 357 356 357 357 356 357 358 359 359 359 358 356 354 352 350 349 348 345 346 340 333 338 342 342 342 340 339 337 336 339 340 339 338 335 334 333 334 336 336 336 336 335 336 335 334 335 335 335 335 334 333
344 345 347 347 348 346 345 347 348 348 349 350 352 355 355 354 355 356 355 355 355 357 358 358 358 358 357 357 356 357 357 357 357 356 356 356 355 356 356 356 357 358 358 358 357 356 354 353 350 348 347 345 345 338 332 338 342 342 342 339 337 336 337 339 339 339 338 335 336 336 336 336 335 336 337 335 336 336 334 335 336 336 335 335 335
343 345 345 347 348 346 345 347 349 349 350 351 352 354 356 355 356 356 356 356 356 356 357 357 358 357 357 357 356 357 357 357 357 356 356 355 354 355 356 356 356 356 357 356 357 355 354 353 350 348 347 345 345 337 332 338 342 342 341 337 335 337 339 339 338 338 338 337 339 339 338 338 336 337 337 336 335 335 335 335 336 338 338 337 336
344 344 345 347 347 345 345 347 349 349 350 352 352 353 356 356 356 356 357 358 357 357 357 357 357 357 357 357 357 357 357 357 357 357 357 356 355 355 356 356 355 355 356 356 356 355 354 353 350 348 347 345 345 338 332 336 342 342 340 336 336 338 340 339 337 336 336 338 339 339 338 338 338 337 337 337 335 335 336 335 336 336 338 340 341
346 346 346 347 347 345 345 347 349 350 351 352 353 353 355 356 357 357 357 358 358 358 357 357 357 357 357 357 357 357 357 357 357 357 357 357 356 356 356 356 355 355 356 356 356 355 354 352 350 349 347 345 344 339 332 334 341 343 341 338 338 340 341 339 337 336 336 338 339 339 338 337 337 338 338 337 336 336 336 335 335 335 336 341 345
347 348 347 346 348 346 345 347 348 350 351 352 353 353 354 356 357 357 357 358 359 359 359 358 357 357 357 358 357 357 357 357 357 357 357 358 357 357 357 356 355 355 356 355 355 355 353 351 351 349 346 345 344 341 333 332 339 343 342 341 340 340 341 339 339 338 337 338 340 340 339 338 338 337 338 338 337 337 337 336 336 335 335 337 339
347 348 348 348 348 347 346 347 349 350 350 352 353 353 354 356 357 358 357 358 359 359 359 359 358 358 357 358 358 358 358 358 358 358 358 358 358 358 357 356 355 355 355 355 355 354 353 352 351 348 346 345 344 342 336 332 337 341 342 341 341 341 341 339 340 341 338 337 339 340 340 339 339 338 337 338 337 337 337 336 336 336 336 337 335
348 348 348 349 348 347 347 346 349 350 350 352 353 354 355 356 357 358 358 358 358 359 360 359 359 358 358 358 358 358 359 359 358 359 358 359 359 358 358 357 356 355 355 355 354 354 353 351 350 347 346 345 344 343 340 335 337 341 342 341 341 341 340 339 340 341 339 338 338 339 340 340 340 339 338 338 337 337 337 337 337 336 336 337 337
347 348 348 348 348 347 347 347 349 350 351 352 353 354 355 355 357 358 358 358 359 359 360 360 360 360 359 358 358 358 359 359 359 359 359 359 359 359 358 357 356 355 355 355 355 354 353 351 349 348 346 345 344 344 342 338 338 341 342 341 341 341 340 340 340 340 340 339 338 338 340 340 340 339 339 339 338 338 338 337 337 337 337 338 338
347 348 348 348 350 349 348 348 349 350 352 352 353 355 355 356 357 358 359 359 359 359 359 360 360 360 360 359 359 359 359 359 360 360 360 359 359 359 358 358 357 356 356 355 355 354 353 352 350 349 347 345 344 343 342 341 340 342 343 342 341 341 340 340 340 340 341 341 340 338 339 339 339 339 339 339 338 338 338 338 338 338 338 338 338
347 347 347 349 350 350 349 349 349 351 353 353 353 355 355 357 357 357 359 359 360 360 360 360 360 360 361 360 360 360 360 360 360 360 360 360 359 359 359 358 357 357 357 356 355 354 353 352 351 349 347 345 344 343 342 341 341 342 344 343 341 341 340 340 340 340 340 341 341 340 339 339 339 339 339 339 339 338 338 338 338 338 338 338 338
348 346 348 349 350 352 353 352 352 351 352 353 353 355 355 356 358 358 359 359 360 361 360 361 361 360 361 361 361 361 361 361 361 360 360 360 359 359 359 358 358 357 357 356 356 355 354 352 350 348 347 345 345 344 343 341 340 340 342 343 343 342 340 339 340 339 339 340 341 341 340 339 339 339 339 338 338 338 338 338 339 339 339 338 339
349 347 349 350 351 356 357 356 353 351 353 354 353 355 355 356 358 359 360 360 360 361 361 361 361 361 361 361 361 362 361 361 361 361 360 360 360 359 359 359 358 358 358 357 356 355 353 352 350 349 347 346 345 345 344 342 339 339 341 343 343 343 341 340 339 338 338 339 341 341 340 338 338 339 339 339 338 338 338 339 339 339 338 338 338
350 349 350 352 354 356 357 357 353 351 354 354 353 355 355 355 358 359 360 361 361 362 363 362 362 362 362 362 362 362 362 361 361 361 361 361 360 359 359 359 359 358 358 357 356 355 353 351 350 348 347 346 346 346 344 343 341 339 341 343 343 342 342 341 339 338 338 339 340 341 340 338 339 339 339 338 338 338 338 338 338 338 338 338 338
350 349 349 354 356 356 356 356 353 351 353 355 354 355 355 355 357 358 360 362 362 362 363 363 363 363 362 362 362 362 362 361 361 361 360 360 360 359 359 360 359 359 358 357 356 355 353 352 350 348 347 347 346 346 345 344 342 340 341 343 343 342 341 341 341 339 339 340 340 340 340 339 339 339 339 338 338 338 338 339 338 338 338 338 338
351 350 351 355 356 355 356 356 354 351 352 354 354 355 355 355 356 357 359 361 362 363 364 364 364 363 363 363 362 362 362 361 361 361 361 360 360 360 359 359 360 359 359 358 357 355 354 352 350 348 348 347 346 346 345 344 343 341 341 343 342 341 341 341 342 341 340 340 340 340 340 338 338 338 338 338 338 338 338 339 339 339 339 339 338
350 350 351 354 354 355 355 355 355 352 351 353 354 354 355 355 355 357 358 360 362 363 364 364 364 364 363 363 362 362 362 362 361 361 360 360 360 359 359 359 359 359 359 359 357 356 354 352 351 349 348 348 347 347 346 345 344 341 341 342 343 341 341 342 342 342 341 341 340 341 340 338 337 337 338 338 338 339 339 339 339 339 339 339 339
350 350 350 352 353 355 354 355 356 353 351 352 353 354 354 354 355 356 357 359 361 363 364 364 365 364 364 363 363 362 362 362 361 361 361 360 359 359 359 359 359 359 359 359 358 357 355 353 351 350 348 348 347 347 347 346 344 342 341 343 343 342 342 342 342 341 341 341 340 341 341 339 337 337 338 339 339 340 340 340 339 339 339 339 339
349 349 349 350 353 354 354 355 358 354 351 351 352 354 354 354 355 355 355 357 359 361 363 364 365 365 364 364 363 363 362 362 362 361 360 360 359 359 359 359 359 359 359 359 359 358 356 354 353 351 349 348 348 347 347 346 345 343 342 342 343 343 342 342 342 341 340 340 340 340 340 340 338 338 339 340 340 340 340 340 340 340 340 339 339
351 351 352 352 353 356 355 356 356 353 351 350 351 353 353 354 355 354 355 356 358 360 361 363 364 364 365 364 363 363 363 362 362 361 361 361 360 359 359 358 358 359 359 359 359 357 357 355 353 352 351 349 349 348 347 346 345 344 342 339 340 342 343 342 342 341 340 340 340 340 340 340 338 339 339 340 340 340 340 340 340 339 339 338 338
352 353 355 354 353 355 356 357 355 352 351 351 351 352 353 354 354 354 355 355 356 359 360 362 363 363 365 365 364 364 363 362 362 362 361 361 360 360 360 359 358 358 358 359 359 358 357 356 354 353 352 350 350 348 347 346 345 344 342 338 338 341 343 342 342 342 341 340 340 339 339 339 338 339 340 341 341 340 339 338 337 336 335 335 336
352 352 353 353 354 354 353 353 352 352 352 352 352 353 353 354 355 355 355 355 355 357 359 361 363 364 365 365 364 364 364 363 363 362 362 362 361 360 360 359 359 359 358 359 359 358 357 356 355 354 352 352 351 349 348 346 344 344 343 340 339 340 342 342 342 342 341 340 340 339 339 339 338 339 340 341 340 338 337 335 335 335 334 333 334
353 352 351 350 353 355 354 351 350 353 355 354 353 354 353 353 355 355 355 355 355 356 358 360 362 364 365 365 365 365 364 363 363 362 362 362 362 361 361 360 360 359 358 359 358 358 358 356 355 354 353 352 351 350 348 346 345 345 343 340 338 338 340 341 341 341 341 341 340 340 339 339 339 340 340 340 339 337 337 336 335 334 332 331 332
358 357 356 355 351 350 351 351 351 353 355 355 355 354 354 354 355 355 356 356 355 355 358 359 361 364 365 366 366 365 365 364 363 362 363 362 362 362 361 361 360 359 359 359 359 358 358 357 356 355 354 352 351 350 349 347 346 345 343 341 337 335 337 340 341 341 341 341 340 340 339 339 340 340 340 339 339 338 338 337 334 329 327 328 330
358 358 357 355 351 348 348 348 352 354 355 356 356 355 355 356 355 356 356 357 357 356 357 359 361 363 364 366 366 366 365 364 363 363 363 362 363 362 362 362 361 360 360 360 359 359 358 357 356 355 354 352 350 349 349 347 346 345 343 342 339 335 334 337 340 341 341 341 341 341 340 340 340 340 338 337 337 338 337 335 330 325 326 328 329
348 352 353 350 349 352 352 351 355 357 356 357 357 356 357 356 357 358 357 357 358 357 357 358 360 361 363 365 366 366 365 365 364 363 363 362 363 363 362 362 362 361 360 360 360 359 358 357 356 355 354 353 351 349 348 347 347 346 345 343 341 337 334 336 340 342 341 342 342 341 341 341 340 338 335 333 335 336 337 334 329 327 330 332 333
349 347 348 346 345 351 354 353 355 357 359 360 359 358 358 357 357 359 358 358 358 358 358 358 359 360 362 364 366 366 365 365 364 364 363 363 363 363 363 362 362 362 361 360 360 359 358 357 356 355 355 353 351 349 348 347 347 347 345 343 341 338 335 335 338 339 340 341 341 341 341 339 338 335 331 330 333 336 336 333 330 330 334 336 337
357 352 350 343 341 352 358 356 354 355 359 362 362 361 359 358 359 359 358 358 358 358 358 358 358 360 361 363 366 366 366 366 365 364 364 363 363 363 363 363 362 362 361 361 360 359 357 356 355 355 354 352 350 349 348 348 348 347 345 343 340 338 334 332 332 335 338 340 340 340 338 337 336 333 328 326 329 333 335 332 328 329 333 336 337
356 354 357 353 344 349 355 357 355 356 356 359 363 363 361 360 360 359 359 359 358 358 358 358 358 359 360 363 365 365 366 366 365 365 365 364 364 363 363 363 362 362 361 360 359 358 357 355 354 353 352 349 349 350 349 347 347 346 344 343 341 339 334 329 327 331 336 339 338 337 335 334 333 331 329 325 324 329 334 331 326 326 328 333 337
353 353 354 356 355 353 354 356 357 358 356 357 361 363 362 362 361 360 360 360 359 359 358 357 358 359 360 363 365 366 367 366 365 366 365 364 364 364 363 363 362 360 360 358 357 355 354 352 351 350 349 348 349 350 349 347 346 344 344 342 342 340 334 327 326 332 337 338 336 335 334 333 331 331 329 323 322 329 334 331 327 328 330 333 336
353 352 351 353 357 358 357 359 361 361 362 361 361 361 362 361 361 361 362 360 360 360 359 358 359 360 362 365 366 366 367 366 366 366 365 364 365 364 364 363 361 360 359 357 355 353 350 349 348 347 347 348 348 348 348 347 345 344 344 343 342 338 333 328 329 334 337 338 337 336 335 333 332 330 326 321 324 331 333 330 331 334 335 335 335
351 351 350 350 354 356 357 361 364 365 366 365 364 364 362 361 362 363 362 362 362 363 362 362 363 364 365 366 367 367 367 366 366 366 364 364 364 364 364 363 361 360 358 355 353 351 349 347 347 346 346 346 346 347 346 345 345 344 343 342 341 338 334 332 333 335 337 338 338 336 334 332 329 327 325 325 329 333 333 333 335 336 335 334 333
348 348 348 348 351 353 354 356 359 362 364 366 366 365 362 362 363 363 363 365 366 366 367 366 366 366 367 367 367 367 366 366 365 365 364 363 363 363 362 361 360 359 356 353 350 349 349 347 346 345 345 344 345 346 345 345 345 344 343 343 341 337 334 334 335 336 337 337 336 333 331 329 328 329 329 330 332 333 334 334 334 333 332 331 330
345 345 346 347 349 350 351 352 354 356 359 361 363 363 362 363 365 365 365 367 368 369 368 367 367 367 366 366 366 364 364 364 364 363 363 362 362 362 361 359 358 356 354 351 348 348 348 347 346 345 345 345 345 345 345 345 344 343 342 341 337 334 334 335 336 336 336 335 333 332 331 332 333 334 334 334 334 334 334 333 331 330 329 328 327
343 344 345 347 348 349 349 349 349 351 353 355 356 358 360 363 367 368 368 369 369 368 367 366 366 366 364 364 363 362 361 361 361 360 360 359 360 360 359 357 356 354 352 350 348 347 346 344 344 344 344 345 345 344 343 343 342 341 340 336 332 332 335 337 337 336 335 333 332 333 335 335 336 336 336 335 334 333 332 330 328 326 326 325 325
342 343 345 347 347 346 346 345 345 346 348 349 351 353 355 358 360 362 365 365 363 363 363 363 362 360 360 360 359 358 357 357 355 356 356 356 357 358 357 355 355 354 352 349 346 345 344 344 344 343 342 342 341 340 341 342 342 341 337 332 331 334 336 337 337 335 333 333 334 335 336 336 335 335 335 334 334 333 331 327 325 325 325 324 323
343 343 344 345 344 343 343 343 342 342 344 346 346 348 350 352 352 354 357 356 353 353 355 355 353 351 350 349 349 349 351 352 352 352 352 352 354 356 356 355 354 355 355 352 349 346 345 345 346 345 343 341 339 339 342 343 343 341 335 331 332 333 333 335 335 333 332 333 335 335 334 334 334 334 334 334 333 331 328 325 324 326 325 323 323
343 343 343 343 342 340 340 341 340 340 341 344 345 345 346 348 348 349 351 350 348 347 347 347 346 344 342 341 340 340 343 347 348 347 346 345 347 351 354 353 352 352 353 354 352 351 349 348 347 346 345 344 343 343 342 342 341 339 335 332 331 329 330 332 334 333 333 334 334 333 333 333 333 333 333 333 332 329 327 326 326 326 325 324 324
344 343 344 343 342 340 339 339 339 339 339 342 344 344 345 345 345 345 346 346 345 344 343 342 341 340 340 340 339 338 340 342 343 345 344 342 341 343 347 350 351 350 350 351 351 351 350 349 348 346 345 344 343 342 341 340 339 338 336 333 330 330 332 334 332 331 332 333 332 333 333 333 332 331 331 331 330 329 328 327 327 326 326 325 325
Wind_Speed
18 24 28 31 31 33 35 35 36 36 37 39 39 39 39 37 36 35 36 37 36 36 34 32 32 30 30 31 31 30 28 27 26 25 24 24 23 20 19 19 18 18 16 15 15 14 13 11 12 12 11 10 8 7 9 10 10 9 6 5 5 5 4 3 1 1 2 3 3 3 1 1 3 5 7 6 6 9 10 10 12 13 13 13 12
15 18 23 30 31 32 34 34 35 35 36 39 40 40 40 39 38 37 37 38 38 38 36 34 34 33 31 31 31 30 29 29 27 23 23 24 23 21 20 20 19 18 17 16 16 15 14 12 12 13 13 12 9 10 10 8 8 8 8 7 5 5 5 3 1 1 2 3 3 2 0 1 2 3 4 3 5 11 13 12 13 14 15 15 14
15 16 18 27 31 33 34 34 36 37 37 39 40 40 40 40 39 38 39 39 39 39 38 36 35 34 32 31 31 29 28 29 27 22 20 22 23 22 21 20 19 18 18 17 17 16 15 14 14 14 15 13 13 13 10 8 8 10 9 7 6 6 4 3 3 2 4 6 5 2 0 1 2 2 2 2 8 11 13 14 14 14 17 16 15
17 17 16 22 28 30 32 34 37 38 37 38 39 40 41 41 41 41 41 40 40 40 39 37 35 34 31 29 29 28 26 26 26 23 20 19 21 22 22 21 19 19 19 19 18 17 17 17 15 15 16 16 16 14 10 8 10 10 9 7 6 6 5 4 3 2 5 7 4 2 1 2 1 1 4 5 11 13 14 16 14 16 18 17 15
19 19 17 17 23 27 31 35 37 37 38 40 41 42 42 43 43 43 42 41 41 41 40 37 34 33 30 26 25 25 23 23 24 25 23 20 20 22 22 21 19 19 20 19 19 19 19 18 17 16 16 17 17 14 10 9 10 11 9 7 7 6 7 6 4 3 5 5 4 3 2 1 1 2 3 6 10 14 16 15 14 16 18 16 14
19 21 19 17 22 28 30 33 35 36 39 42 44 44 43 44 45 44 43 42 42 42 41 38 36 34 31 27 26 25 24 25 27 27 26 24 23 22 22 21 20 20 20 20 20 21 20 19 19 18 17 18 16 13 11 11 11 11 10 8 8 7 8 8 6 6 6 4 4 4 3 3 4 3 2 3 5 9 13 13 13 15 15 15 14
18 19 20 19 21 25 27 32 35 36 40 43 44 44 42 43 45 44 43 42 42 43 42 40 37 36 34 33 31 29 27 28 30 30 29 27 26 24 23 23 22 21 20 20 21 22 20 19 20 20 19 18 15 13 14 14 12 12 10 10 9 8 9 10 9 8 6 5 5 5 5 6 6 4 3 3 3 4 8 11 12 13 14 14 13
17 17 19 19 20 24 28 33 38 39 41 42 41 42 41 41 44 45 44 43 42 43 43 41 40 38 37 35 33 32 31 30 31 31 30 28 27 26 25 24 23 22 21 21 22 23 21 20 21 21 20 18 15 14 16 16 14 12 11 11 11 9 9 10 11 10 8 8 8 6 6 6 5 4 5 5 4 3 3 5 9 13 13 14 13
18 19 20 20 21 28 34 37 40 41 41 41 42 43 42 41 43 44 43 42 42 43 44 43 41 40 38 36 34 33 32 30 30 30 30 29 28 27 26 25 24 24 23 22 23 24 22 21 22 23 21 19 16 14 16 17 15 13 14 14 13 10 10 10 11 11 10 11 11 8 7 6 4 4 5 4 4 3 1 2 6 10 10 11 14
19 20 21 21 26 33 37 39 40 40 41 44 44 43 42 41 40 41 42 42 42 44 44 44 42 40 38 37 35 34 31 29 29 29 30 29 28 28 28 27 27 26 25 23 24 24 23 23 24 24 22 20 17 14 16 17 15 14 15 15 13 11 12 11 10 11 12 11 10 9 8 7 4 3 4 4 3 4 2 1 4 7 6 9 14
17 19 19 22 29 35 37 37 38 40 41 42 42 42 42 41 41 42 42 42 43 44 45 44 42 40 39 39 38 36 33 30 29 30 31 30 29 29 29 29 29 29 28 26 25 24 24 25 25 24 23 21 19 16 17 19 16 15 15 15 13 11 12 12 10 11 12 11 9 9 10 8 5 5 6 6 4 4 4 2 2 5 6 8 14
18 18 18 19 23 27 29 32 36 37 37 38 40 41 41 42 43 42 41 41 42 44 45 44 42 40 40 40 40 38 35 33 32 32 33 32 31 31 30 31 31 30 29 28 27 26 25 26 26 25 24 23 21 19 20 21 17 16 16 15 14 12 13 13 12 12 11 10 10 10 10 8 6 6 7 8 7 6 7 4 3 4 4 5 10
18 17 17 17 18 18 22 28 32 34 36 38 39 40 41 42 44 43 42 42 42 43 44 44 43 41 40 40 40 38 36 35 35 34 34 34 33 32 31 32 32 32 32 31 31 29 27 27 28 28 26 25 23 20 22 23 19 18 19 17 15 15 15 14 13 13 11 10 11 11 9 8 7 7 7 8 8 7 7 5 4 4 3 3 5
18 17 17 17 17 17 21 27 31 33 37 39 40 40 41 41 43 44 44 44 43 43 44 44 44 43 42 41 41 39 36 36 36 36 35 35 34 34 33 34 34 35 35 34 33 31 30 29 29 29 28 27 24 22 23 24 21 20 20 18 17 16 16 15 14 14 13 12 11 10 9 9 8 8 8 8 8 8 7 7 6 3 1 2 3
17 17 18 19 20 20 23 28 32 34 38 39 40 41 41 41 43 44 44 44 44 44 44 44 44 44 43 42 41 40 38 37 37 37 36 35 35 35 35 35 35 36 37 36 34 33 32 31 31 30 29 28 25 24 25 25 22 22 22 20 18 17 16 16 16 16 15 14 12 10 9 9 8 9 9 8 7 8 8 9 8 4 1 2 3
17 17 19 20 21 21 24 29 32 35 37 39 40 41 41 41 43 45 45 45 46 45 44 45 44 43 42 42 41 40 38 36 36 36 36 36 36 36 36 36 36 36 37 37 36 34 33 32 32 32 31 30 27 25 26 26 24 23 23 22 21 19 18 18 18 17 17 16 14 12 11 11 9 9 9 8 7 7 8 9 9 7 5 1 2
17 17 19 20 19 20 25 29 31 34 36 38 41 43 44 43 43 44 44 44 45 45 45 45 44 42 41 42 41 40 38 37 37 37 36 36 36 36 37 36 36 37 38 38 37 36 35 34 34 33 33 31 28 26 27 26 25 24 23 23 23 22 21 20 20 19 18 18 16 14 14 13 11 11 10 9 8 8 8 9 8 8 7 5 1
19 19 19 19 19 19 24 29 33 37 39 41 44 44 45 45 45 45 43 42 44 44 45 45 44 42 41 41 41 40 39 38 37 37 36 36 36 36 37 37 37 38 38 38 37 37 36 35 35 35 34 33 30 28 27 27 27 25 24 23 24 24 23 21 21 19 18 20 18 16 14 13 13 13 12 10 9 9 9 9 9 8 8 7 6
18 18 17 16 17 18 23 29 34 38 40 42 44 43 43 43 44 45 45 45 46 45 44 44 43 42 41 41 41 40 39 38 37 36 36 36 37 37 37 38 39 39 39 38 38 38 37 37 37 36 36 34 31 29 27 27 28 27 26 24 24 26 25 23 22 20 18 19 20 18 16 15 14 13 12 12 12 11 11 11 10 10 10 10 10
16 16 16 16 18 20 26 31 34 37 39 40 41 41 42 42 42 43 44 44 44 44 43 43 42 41 39 39 40 40 39 38 37 36 36 37 38 38 38 39 39 39 39 39 39 39 38 38 38 38 37 35 34 32 29 28 28 28 27 25 25 27 26 24 24 21 19 19 20 21 19 17 16 15 14 13 13 13 12 12 11 11 11 11 11
16 16 16 18 19 20 28 33 35 36 37 37 39 40 41 41 41 41 42 41 42 43 43 42 41 40 39 39 39 39 38 38 37 37 37 38 39 40 40 39 39 40 39 39 39 39 40 40 40 39 38 37 36 34 31 29 30 30 29 28 27 28 28 26 25 24 22 21 21 22 22 19 17 17 17 15 14 14 13 13 12 13 13 13 13
16 17 17 18 18 18 23 28 29 31 32 35 38 39 39 40 41 41 41 41 42 43 43 42 40 40 40 40 39 39 38 38 38 38 38 38 39 40 41 40 40 40 40 40 40 40 40 41 41 40 39 38 37 35 33 32 32 32 32 31 30 30 30 28 27 26 24 23 22 22 22 21 18 18 18 17 16 15 15 15 15 15 16 16 15
19 19 17 16 16 17 19 23 25 28 32 35 37 37 39 41 40 40 40 42 43 43 43 42 40 40 41 40 39 38 38 38 38 38 39 39 39 41 41 41 41 41 40 41 41 41 41 41 42 41 40 39 38 36 35 34 34 35 34 34 33 32 32 30 29 27 24 23 24 24 22 21 20 19 19 19 17 17 16 16 16 16 17 18 17
19 19 16 15 15 14 15 17 20 25 30 33 35 36 37 38 38 40 41 42 43 42 42 41 40 40 40 40 39 38 38 39 39 40 40 40 40 40 41 41 41 40 40 41 41 40 41 41 42 42 40 39 38 37 37 36 36 37 37 36 35 34 33 32 31 30 26 24 25 26 23 22 22 21 21 20 19 18 17 17 18 18 18 19 19
19 18 15 14 14 13 14 14 16 22 27 30 33 34 35 36 38 40 40 41 42 41 41 41 41 40 40 40 40 39 39 40 40 40 40 41 40 40 41 41 40 40 40 41 41 40 40 42 42 42 40 40 40 39 39 38 38 39 38 37 36 35 33 32 32 31 29 26 25 26 24 22 22 23 23 22 20 18 18 17 18 19 18 19 19
17 16 13 13 13 14 16 15 16 21 26 30 33 34 35 36 38 38 38 40 41 41 40 40 40 40 40 41 41 40 40 41 41 41 41 41 41 40 40 40 40 40 40 40 40 40 41 42 42 41 40 40 41 41 41 40 39 39 38 37 36 34 33 32 32 31 30 28 26 26 24 23 22 23 23 22 20 18 18 18 19 19 18 18 19
15 14 12 12 13 15 17 16 17 23 28 31 34 35 36 35 36 37 38 40 41 41 40 40 40 40 40 41 42 42 42 42 42 42 41 41 41 41 40 40 40 40 39 39 40 41 42 42 41 40 40 40 41 42 42 40 40 40 38 36 34 33 33 33 33 31 30 29 28 27 26 26 25 23 22 21 19 19 19 19 20 19 19 19 19
12 12 13 14 14 16 17 16 17 22 28 31 33 35 36 36 36 38 38 38 40 40 40 40 40 40 41 42 43 43 43 43 42 42 42 41 41 41 40 39 39 39 39 39 40 40 40 39 39 40 40 40 41 42 42 41 41 39 37 35 33 32 32 32 31 31 31 30 29 28 27 27 26 24 22 21 20 20 20 20 20 19 20 20 20
14 13 13 15 15 16 16 16 17 20 24 27 30 32 34 34 36 37 38 39 40 40 40 39 40 41 42 43 42 42 42 42 42 41 42 42 41 40 39 39 38 39 40 40 39 39 38 38 38 38 39 40 42 43 44 43 41 39 37 34 32 32 32 30 29 30 31 30 29 29 28 26 25 23 22 22 22 21 20 21 20 20 21 21 22
15 15 15 16 17 17 17 17 16 17 20 24 27 30 33 34 35 37 38 40 40 39 39 39 40 42 42 41 41 41 40 41 41 42 42 42 41 40 39 38 38 39 39 39 38 37 37 38 38 38 39 40 42 44 45 44 42 39 35 31 30 31 32 30 29 30 31 30 30 28 28 27 25 22 21 22 21 20 21 21 21 22 22 23 23
15 15 16 16 17 16 17 17 16 17 21 25 27 31 33 34 34 36 39 40 39 39 40 40 42 41 39 39 40 40 39 40 41 41 41 41 40 39 39 38 38 38 38 38 37 37 38 39 38 39 39 40 43 45 45 44 42 36 29 27 29 31 31 29 29 30 31 31 30 28 28 27 24 22 21 21 20 21 21 22 23 24 24 23 23
13 13 12 13 15 15 15 15 15 17 22 26 29 30 31 32 35 38 40 40 40 40 41 41 41 39 38 39 40 40 39 40 41 41 41 40 39 38 38 38 38 38 38 37 37 37 39 39 38 39 40 42 44 45 45 43 39 33 30 33 34 31 30 29 29 30 31 31 30 29 28 26 24 22 22 21 21 20 20 21 21 19 18 19 21
13 12 12 13 13 13 14 15 15 19 26 32 33 32 32 36 40 41 40 39 39 40 41 41 40 38 39 40 40 40 40 40 41 41 40 38 38 38 38 38 39 39 38 37 37 38 38 39 39 40 41 42 43 44 44 40 35 36 38 40 36 32 31 30 29 30 31 30 29 28 27 26 24 23 22 21 18 16 14 13 12 11 12 16 19
14 14 15 14 12 12 14 18 23 28 33 36 36 36 38 41 41 40 39 39 40 40 39 39 38 38 40 41 40 40 40 41 41 40 38 38 38 38 38 39 39 38 36 37 38 38 39 39 40 41 41 42 42 43 41 37 36 40 42 39 34 33 31 30 29 30 29 29 28 27 27 25 24 24 22 19 15 12 10 10 11 13 15 18 20
12 13 15 16 16 16 15 17 24 30 32 32 33 36 38 38 37 36 37 39 40 39 38 37 37 38 40 40 40 40 40 40 39 39 39 39 39 38 38 38 37 37 38 39 39 39 39 39 40 40 40 40 41 40 37 36 38 42 42 38 34 34 31 28 28 28 28 29 29 28 27 25 24 23 21 18 14 13 13 14 15 17 18 21 24
10 12 14 15 16 17 19 22 27 31 31 32 35 38 37 34 34 34 35 37 38 37 36 36 37 38 39 41 41 41 39 39 39 39 39 39 39 38 38 38 37 37 38 38 38 39 39 39 39 39 39 39 38 36 35 37 38 39 40 38 35 35 33 29 27 27 28 29 29 28 27 25 23 21 19 16 15 14 16 18 19 19 20 23 24
5 7 9 12 15 18 21 25 27 29 31 33 36 38 35 32 32 32 33 34 34 33 35 36 37 39 40 41 42 41 39 39 39 39 39 40 39 39 39 39 38 37 37 38 38 39 39 38 38 38 38 36 34 33 34 37 37 36 38 38 37 37 35 31 27 27 28 28 27 26 26 26 25 21 18 17 15 15 17 19 20 22 22 24 24
6 5 6 9 14 18 21 22 21 22 28 31 32 32 31 29 29 31 32 31 31 33 35 36 37 40 41 42 42 42 40 39 39 40 40 39 39 39 39 39 39 39 38 38 38 37 36 37 37 38 38 36 34 34 34 36 37 36 38 40 40 38 34 31 28 25 24 25 26 26 26 26 25 21 19 18 18 18 20 21 22 22 22 25 25
7 5 5 8 13 16 19 19 17 19 24 27 27 28 27 26 27 30 30 29 30 34 37 38 40 42 42 42 42 42 42 40 40 41 41 40 40 40 40 40 39 39 37 36 36 35 34 35 36 37 39 38 36 35 35 36 36 36 38 40 38 34 32 32 29 25 22 22 25 26 26 25 24 22 21 21 21 21 22 23 21 19 21 25 25
8 7 6 8 11 12 12 13 16 22 26 26 27 27 25 25 28 29 28 29 34 39 41 42 42 40 40 41 42 42 43 42 42 41 40 40 40 39 38 38 37 36 35 33 33 34 33 34 35 37 38 38 36 34 34 35 35 36 38 38 35 34 34 32 28 24 22 22 25 27 26 24 23 24 25 25 24 22 23 22 20 19 22 24 22
9 11 10 6 7 10 12 16 21 26 25 23 24 25 25 28 29 25 26 34 40 42 41 40 38 37 38 41 42 43 43 42 42 41 39 39 39 38 37 37 35 34 32 31 31 32 33 33 34 35 34 34 33 33 34 34 35 36 37 38 36 35 36 32 27 23 23 25 27 27 25 24 25 26 27 28 26 24 23 22 21 20 22 22 20
11 13 13 10 5 4 8 14 19 22 21 19 19 20 22 25 24 25 34 42 42 40 38 37 36 37 38 40 40 41 41 41 40 40 38 37 37 36 36 35 33 31 30 29 30 30 29 29 29 30 30 31 32 32 32 33 35 35 36 38 38 37 35 31 26 23 24 26 27 25 24 25 27 28 27 27 26 24 22 22 23 23 22 21 20
10 11 12 11 6 2 2 7 12 16 18 19 20 19 18 17 18 24 33 36 35 35 36 35 35 36 37 38 39 39 39 39 39 40 38 36 34 34 34 33 31 30 30 29 28 27 25 23 23 24 27 30 31 31 31 32 33 34 35 38 39 36 34 30 26 25 27 27 26 25 25 27 27 26 25 25 25 23 22 22 22 21 19 17 16
9 11 14 12 7 6 4 2 7 10 14 18 20 19 16 15 18 22 22 21 24 28 30 31 32 34 34 35 37 38 39 38 39 39 37 35 34 34 33 32 32 31 29 27 25 25 23 22 21 22 24 27 30 31 30 30 31 33 35 38 38 36 32 29 27 27 28 28 26 26 26 27 26 24 22 22 22 21 20 18 15 13 12 13 13
11 14 17 15 11 10 11 9 7 4 4 11 17 19 17 16 20 21 18 18 22 24 26 28 30 31 33 34 34 36 37 38 40 40 38 36 35 33 30 29 29 28 26 24 23 23 23 22 22 21 22 25 27 27 28 29 30 32 34 36 37 34 30 26 25 26 27 27 27 27 25 24 22 21 19 19 18 17 15 13 11 11 12 13 13
11 14 17 16 14 13 12 12 16 19 13 5 3 8 10 11 16 20 22 25 27 25 24 24 25 27 30 32 33 33 34 36 38 38 37 36 35 33 29 27 26 25 24 24 24 24 23 23 22 22 23 25 25 25 27 30 32 33 34 35 34 31 27 24 24 25 25 25 24 23 21 19 18 17 16 14 13 12 12 11 11 12 12 11 10
11 13 14 13 11 11 11 11 16 21 20 15 11 10 8 7 10 15 21 26 28 28 25 23 24 26 28 31 32 32 32 33 33 32 32 31 31 31 29 28 27 25 25 24 25 24 23 22 22 22 24 25 26 27 28 31 33 34 34 33 31 29 27 26 25 25 23 22 20 17 14 14 13 12 12 11 11 12 11 12 12 11 9 7 6
12 14 13 11 9 10 11 11 13 18 19 16 15 15 14 13 12 12 16 18 17 19 22 22 21 21 22 25 29 31 33 31 29 29 28 27 27 29 28 27 28 28 27 26 25 25 24 24 24 24 23 22 22 24 27 30 32 33 33 32 31 30 29 28 27 25 22 18 15 13 11 11 10 11 12 13 13 13 13 12 11 8 5 5 6
13 14 12 10 10 11 12 12 12 16 18 16 15 15 15 17 18 18 20 21 18 15 14 16 18 15 13 16 22 29 35 36 34 32 29 24 24 27 27 26 27 28 29 28 26 26 27 27 27 27 24 21 21 25 29 29 29 30 31 32 32 32 30 28 28 26 22 17 15 13 12 11 11 13 15 15 15 15 13 12 10 6 6 8 9
12 14 12 11 10 10 12 11 10 12 15 14 13 12 13 15 20 23 26 27 25 20 16 13 15 17 18 20 22 28 34 37 37 35 31 25 22 24 25 25 24 24 26 27 26 26 27 28 28 28 27 25 25 28 29 28 27 28 30 31 31 29 28 28 27 24 20 17 15 14 13 13 14 16 17 18 17 16 15 13 10 8 9 11 11
12 12 11 12 12 11 10 9 7 7 9 9 10 11 12 13 17 22 26 29 29 26 22 17 16 18 20 21 22 24 30 34 35 34 33 28 24 21 19 21 21 21 21 23 23 23 24 25 25 26 27 27 26 25 25 26 27 29 30 30 29 26 26 27 25 21 18 17 16 15 15 15 16 17 18 18 17 16 15 14 13 12 12 13 13
Wind_Direction
189 190 190 187 184 181 181 182 183 184 185 187 188 190 191 192 193 195 196 196 196 198 200 201 199 198 200 202 205 209 210 210 213 217 220 217 213 213 214 213 214 215 213 211 213 210 207 210 205 202 201 191 193 200 192 188 195 205 199 191 192 171 155 157 202 306 66 83 110 135 167 64 87 130 148 151 155 156 151 142 139 138 138 139 136
183 186 189 187 187 184 183 183 183 183 185 187 188 190 192 192 194 195 195 195 196 198 199 200 199 198 200 203 206 208 208 207 209 213 215 212 211 214 215 215 218 217 214 212 213 210 207 206 202 198 193 192 200 195 190 202 211 201 179 168 171 152 137 120 94 171 119 91 112 134 7 35 82 125 156 193 174 160 157 148 143 147 146 142 140
183 185 186 187 188 185 184 185 185 186 186 187 189 190 191 193 194 195 195 195 196 198 199 200 200 200 203 205 205 207 207 207 208 209 209 210 212 216 217 217 218 217 213 212 212 209 207 205 201 195 192 198 202 196 203 219 201 185 178 177 173 150 139 121 92 136 156 132 114 100 290 11 52 70 82 174 180 168 163 158 154 156 153 147 145
187 188 185 186 187 185 185 186 187 187 187 188 190 191 192 193 194 195 196 196 197 198 199 200 200 201 204 206 205 206 207 207 211 213 212 212 212 215 217 216 217 214 211 211 209 206 205 205 201 198 201 205 205 205 211 206 187 180 179 181 177 157 153 154 114 114 162 161 141 100 124 95 73 11 43 110 162 160 157 159 156 154 154 152 149
187 189 187 186 186 185 185 186 186 187 188 189 192 193 194 194 194 194 195 195 196 197 198 198 198 199 202 204 204 205 207 206 210 214 215 213 212 213 214 214 214 211 210 211 207 203 204 205 203 202 203 203 207 215 213 195 182 181 180 183 185 171 166 167 146 126 138 152 160 141 112 75 191 223 52 97 148 153 152 155 151 150 154 156 153
187 189 187 185 187 187 185 185 186 187 189 191 193 195 195 195 194 194 194 195 196 196 196 196 196 197 198 199 199 201 204 206 208 211 213 213 213 214 213 212 211 208 209 210 207 204 204 205 205 204 203 202 210 218 210 197 185 183 186 191 189 176 176 174 156 144 130 115 136 137 135 158 170 173 109 101 138 149 152 152 150 153 157 160 161
189 190 188 184 185 187 185 185 185 188 191 191 192 193 194 193 193 193 194 194 195 194 194 196 196 196 198 200 201 201 203 207 208 210 211 212 214 215 214 211 210 208 207 207 207 206 204 205 206 207 206 207 212 213 205 199 193 193 196 200 195 178 180 183 166 156 150 137 133 118 113 133 139 138 145 144 130 145 153 151 155 159 161 165 169
189 191 190 187 185 187 188 187 188 190 191 190 191 192 192 191 191 192 193 193 194 194 194 195 196 197 198 201 204 205 206 207 208 209 210 211 213 213 212 209 208 209 207 205 205 206 206 205 205 207 208 210 211 207 201 198 199 202 199 201 203 193 190 188 175 167 162 155 151 138 124 127 123 117 134 142 133 145 167 161 161 162 165 174 177
188 189 191 190 188 188 189 190 191 191 190 190 191 192 192 191 190 190 191 192 193 193 194 196 198 198 199 201 205 208 209 209 207 208 209 210 211 210 209 207 206 208 208 206 204 205 207 205 203 206 209 212 212 207 201 200 204 205 199 199 202 204 203 190 180 180 172 161 161 157 147 142 136 126 136 137 118 129 188 217 173 165 171 185 189
190 190 191 191 190 191 191 191 191 191 190 192 192 192 192 191 189 189 190 192 193 193 195 197 198 199 198 201 205 208 209 208 207 207 208 209 208 206 206 206 206 206 207 206 203 203 206 205 203 205 211 215 214 211 205 202 205 206 202 201 203 209 205 190 180 183 180 174 174 175 167 160 162 167 174 165 111 103 126 177 176 171 175 192 197
191 192 193 193 193 192 191 191 190 191 191 191 191 191 191 190 189 189 190 192 193 194 195 197 199 199 199 201 204 206 206 204 204 204 206 206 204 203 204 205 206 206 206 205 202 203 204 204 205 206 211 215 214 213 207 200 202 203 201 204 210 215 206 193 183 180 182 185 190 195 187 174 167 172 182 184 162 120 124 136 169 176 178 190 199
190 191 193 194 194 193 191 191 191 190 190 189 190 190 190 190 190 190 191 192 193 194 196 198 200 200 201 203 205 206 204 201 202 203 204 204 203 203 204 204 204 204 204 203 202 202 203 203 205 207 212 214 214 213 205 198 200 203 206 212 216 215 205 196 189 185 187 192 195 197 194 188 179 172 174 180 177 154 151 168 168 164 171 179 193
188 190 191 192 193 191 191 191 191 190 189 189 189 189 189 191 191 191 192 193 193 195 197 199 201 202 203 204 206 206 205 203 203 203 203 203 203 203 203 203 202 201 202 203 202 202 203 204 206 208 212 214 214 212 203 199 202 207 214 220 217 211 204 200 196 191 192 196 195 192 192 197 192 185 186 182 177 162 153 164 165 159 175 178 190
188 189 190 191 192 191 190 190 190 190 190 190 189 190 190 191 191 192 193 194 194 195 198 200 202 204 205 206 207 207 206 204 204 204 204 204 205 205 205 204 202 201 202 203 203 203 204 206 208 210 213 214 214 212 204 202 205 211 219 220 215 211 206 205 205 200 197 197 196 194 195 199 199 198 202 197 195 194 180 168 160 145 175 210 224
188 188 189 191 192 192 191 189 190 191 191 190 190 190 190 191 192 193 194 194 195 196 198 201 204 205 206 207 208 208 207 206 206 207 206 205 206 207 208 206 204 205 205 205 205 204 205 208 210 211 214 215 215 212 205 205 209 214 219 218 216 216 213 212 211 207 203 199 200 204 200 200 201 199 203 209 213 213 204 188 174 157 140 282 285
189 188 190 193 193 192 191 190 191 191 190 190 191 191 191 192 193 194 195 195 195 196 199 202 205 206 207 207 209 209 209 208 208 208 208 207 207 207 208 209 208 208 207 206 205 205 206 209 210 212 214 215 217 213 207 207 211 213 215 216 217 218 219 219 217 213 209 205 207 210 209 209 206 197 202 214 220 218 215 207 195 183 176 210 313
189 190 191 192 192 192 192 191 190 190 190 191 192 192 192 192 193 195 196 196 196 197 199 202 205 206 207 208 209 209 209 209 209 209 209 209 208 208 209 211 212 210 207 206 206 206 207 209 210 212 214 215 217 215 209 209 211 212 213 215 217 217 220 221 220 217 213 210 211 214 218 220 213 207 211 218 224 226 220 216 216 210 195 182 188
190 192 193 192 190 192 192 191 191 191 191 192 193 193 193 194 194 195 195 195 197 198 200 202 204 205 207 208 208 209 209 210 210 210 210 209 209 209 209 211 211 208 206 205 206 206 208 210 211 211 213 216 218 215 211 210 212 215 216 217 218 217 219 219 219 219 216 213 214 216 220 222 218 218 221 224 227 226 224 224 230 235 228 211 196
190 191 193 192 190 191 191 191 193 192 192 192 193 193 194 195 196 195 196 197 198 199 200 202 203 205 206 208 209 209 209 210 211 210 210 209 209 208 208 209 209 207 206 206 206 207 208 210 210 212 214 217 218 215 212 211 213 218 219 219 218 216 217 219 218 220 221 217 216 218 220 222 225 226 229 232 234 234 237 240 242 243 242 237 223
190 191 192 192 192 192 191 192 192 192 192 191 191 192 194 196 196 196 197 197 198 199 200 201 203 204 206 207 209 209 209 210 211 210 210 210 210 209 208 209 208 207 207 208 208 208 209 209 209 212 215 217 217 216 214 212 213 219 221 219 217 215 217 220 218 220 224 222 219 220 221 223 226 230 232 233 236 239 243 246 247 246 243 244 239
190 191 193 193 193 193 193 193 191 189 189 188 189 192 193 195 196 196 196 197 197 199 200 201 202 203 205 206 208 209 209 210 210 211 211 211 210 210 210 209 208 209 209 209 209 209 209 209 209 212 215 216 216 215 214 213 213 218 221 219 217 215 218 220 219 221 224 224 222 221 223 225 226 229 230 229 231 234 238 240 242 244 243 241 240
192 193 196 194 192 193 193 191 187 185 185 187 190 191 193 195 196 195 195 196 197 199 200 201 201 202 204 206 207 208 208 209 210 211 212 212 212 211 211 210 210 210 210 210 211 210 210 210 210 213 215 215 216 215 214 214 214 217 220 220 219 218 218 219 219 221 224 224 223 223 224 226 227 230 230 228 230 231 234 238 239 241 243 241 240
195 196 196 192 190 192 189 184 182 183 185 187 189 191 193 195 194 193 195 197 198 199 199 200 200 202 204 205 206 208 208 209 210 212 213 213 213 212 211 211 211 211 211 212 212 212 211 211 211 213 213 214 215 215 215 215 216 217 218 220 221 221 221 220 220 221 223 223 223 224 226 228 230 233 231 229 233 235 238 242 243 244 247 247 246
198 197 195 191 188 185 182 182 182 183 185 188 190 193 194 194 193 194 196 197 198 199 199 198 199 201 203 204 205 206 207 208 210 212 213 213 213 213 212 212 212 211 212 213 213 213 212 211 211 212 212 212 214 215 215 217 218 219 218 219 221 222 223 223 223 223 223 223 224 225 228 229 230 233 233 232 233 236 238 241 243 245 248 252 254
199 197 192 185 180 177 180 183 183 182 184 187 191 194 195 194 195 195 196 196 197 198 197 197 199 200 201 202 204 205 206 208 210 212 213 213 213 213 212 212 211 211 213 213 213 212 212 211 212 212 211 211 214 216 217 217 220 221 220 219 220 222 224 225 226 225 223 224 225 226 227 227 231 236 236 232 231 234 238 240 242 246 249 255 260
198 194 185 178 176 179 183 183 181 181 182 186 191 194 195 196 196 196 196 196 197 198 197 197 198 199 200 202 203 204 206 208 210 211 213 213 213 213 212 212 211 212 213 213 213 212 212 213 212 211 211 211 214 218 219 219 220 221 221 220 220 221 224 227 228 227 225 225 226 227 228 228 233 236 233 230 232 237 241 243 244 247 251 256 260
195 189 181 178 178 181 183 184 183 182 184 187 191 193 195 196 196 196 197 196 197 197 196 196 197 198 200 201 202 203 205 207 209 211 212 213 213 213 213 212 212 212 213 213 213 213 214 213 212 211 212 213 215 218 219 219 220 222 221 220 220 221 224 227 228 229 229 228 229 230 231 232 234 234 232 233 238 243 246 248 249 250 253 255 257
191 189 182 179 181 182 183 185 185 185 187 189 192 194 195 196 196 196 197 197 197 197 196 196 197 199 200 202 202 203 205 207 209 210 212 213 214 213 213 212 212 212 213 215 214 214 214 213 213 212 213 214 217 218 219 219 220 221 221 220 220 220 223 226 227 230 231 232 233 234 235 235 233 233 237 241 245 249 250 250 251 254 256 256 257
190 190 185 183 184 183 183 185 187 188 188 189 192 194 195 196 196 196 197 198 198 197 197 196 197 200 202 202 202 203 205 206 208 209 211 213 214 214 213 213 212 213 214 216 216 216 214 213 213 213 213 215 217 219 220 219 218 219 220 220 220 221 224 225 226 228 231 232 234 236 236 235 232 232 238 244 248 251 251 253 257 259 258 257 256
191 190 187 188 188 184 184 186 187 188 188 188 192 195 195 196 197 196 198 199 198 196 197 197 199 202 202 201 201 202 204 205 207 209 210 211 213 213 213 213 213 214 214 215 216 216 215 214 213 212 213 215 217 221 221 220 219 218 218 219 221 223 224 225 225 227 229 231 232 234 235 234 233 233 237 243 249 252 255 261 266 265 262 259 257
195 193 190 190 188 185 186 186 187 189 189 190 193 195 197 197 197 197 200 199 197 197 199 199 202 203 200 199 201 202 203 204 206 209 210 211 212 212 213 213 213 214 215 215 215 215 215 215 214 213 214 215 219 222 222 220 218 213 212 220 226 226 225 225 226 227 227 228 230 231 232 232 233 235 238 243 249 254 259 264 267 267 266 264 261
196 194 192 193 190 187 186 186 189 191 191 194 195 195 196 197 198 200 201 199 197 199 200 202 203 202 199 199 201 201 202 204 206 208 210 210 211 211 212 213 213 214 215 214 214 214 215 215 214 214 215 217 221 223 222 220 213 203 211 226 228 227 228 227 228 229 229 229 229 228 229 230 232 236 240 243 247 254 259 263 265 266 266 267 266
189 186 187 191 191 188 186 186 191 194 196 198 196 194 197 199 200 201 200 198 199 201 202 203 203 200 198 200 201 200 202 204 205 207 208 209 209 210 211 212 213 215 214 213 214 215 215 215 214 215 216 219 222 223 222 219 205 200 215 226 225 225 229 229 228 230 230 230 229 228 228 230 233 237 240 243 248 254 254 248 244 246 257 267 267
189 186 186 186 187 190 191 192 195 198 200 201 198 197 201 202 202 200 197 197 200 202 202 202 201 199 199 200 200 200 202 204 205 205 206 207 208 210 211 212 213 214 213 213 214 215 215 215 214 215 217 219 223 223 221 215 205 206 216 221 221 226 231 231 231 231 230 230 230 228 226 228 232 235 238 242 245 242 230 222 232 250 264 268 265
190 189 190 189 188 190 194 198 200 200 201 200 199 202 204 205 203 200 198 198 200 202 202 202 200 200 199 199 199 201 202 203 203 203 204 206 207 208 210 211 212 213 213 214 214 215 215 215 215 215 217 219 222 222 218 212 211 214 213 211 219 227 231 234 235 232 232 232 231 229 228 228 230 231 233 236 236 234 235 243 256 265 264 262 262
195 196 199 197 194 194 195 198 200 200 200 199 200 203 204 204 203 201 201 202 201 201 202 201 200 200 199 199 199 201 201 201 201 200 202 204 205 206 208 209 211 213 214 215 215 215 215 215 214 215 216 219 221 220 215 212 215 215 208 205 216 225 227 233 236 233 233 234 232 231 230 228 227 227 228 231 235 242 251 259 265 264 258 260 266
222 216 216 212 208 207 205 203 200 200 200 200 202 203 202 201 200 200 203 204 202 202 202 201 201 200 200 199 199 199 200 199 198 199 201 203 203 205 206 207 208 211 212 213 214 215 215 214 213 213 214 216 217 216 214 213 214 213 207 206 213 218 221 228 232 231 232 231 229 229 228 225 225 225 228 235 240 249 258 263 262 257 256 263 271
291 267 249 239 228 221 218 214 207 204 206 205 203 202 200 199 198 198 201 203 203 205 205 203 203 202 201 200 199 199 199 197 197 199 200 201 202 203 205 205 206 208 211 212 213 213 213 212 212 212 212 214 214 213 212 211 212 214 211 209 210 212 215 222 227 228 231 230 227 225 224 222 223 225 232 239 244 252 261 263 258 257 264 272 275
316 289 254 251 250 240 230 221 213 212 212 208 204 200 199 200 200 199 199 201 204 207 207 205 205 204 202 200 199 198 198 197 197 198 199 199 200 202 203 204 205 207 210 211 210 209 209 209 210 211 213 213 212 210 209 210 213 216 214 210 207 206 210 219 225 227 230 229 225 223 221 219 222 227 234 240 245 254 262 262 260 263 271 274 276
344 329 293 251 240 238 232 221 216 220 219 211 202 198 198 203 205 201 199 201 205 208 209 208 207 205 202 200 199 198 198 197 196 197 198 198 199 200 201 201 202 205 207 207 206 204 205 206 208 210 211 211 208 206 206 211 216 218 214 208 204 205 209 216 221 224 227 224 221 220 218 218 225 233 237 239 244 255 263 263 262 265 268 271 277
357 354 345 304 238 221 222 224 222 223 224 217 205 200 200 204 205 202 202 207 209 210 210 209 207 204 201 200 199 198 197 196 195 195 195 196 197 197 197 197 198 200 200 199 199 200 202 204 206 207 206 205 206 207 208 211 216 217 213 208 207 209 211 213 215 219 221 218 216 215 214 220 230 238 240 240 243 254 264 264 265 268 270 272 275
356 5 5 350 313 234 224 233 232 229 227 220 211 210 212 210 206 204 207 210 210 210 208 206 204 202 200 199 198 197 194 192 191 191 190 191 193 193 192 193 194 193 191 191 192 194 197 199 200 201 200 200 205 211 213 212 213 215 213 212 213 213 212 211 212 213 215 215 215 215 220 229 237 240 242 243 246 253 261 265 271 275 273 268 265
353 359 3 354 335 324 179 205 218 224 223 212 203 209 220 223 219 217 216 213 209 207 204 202 200 198 197 195 193 191 189 186 185 185 185 185 186 186 187 188 187 185 184 185 186 186 186 184 185 190 195 200 205 212 215 214 212 212 213 213 213 213 212 213 214 212 211 214 218 223 231 238 241 242 246 248 248 253 261 269 274 273 266 258 256
351 351 359 2 346 328 328 188 180 196 206 203 199 200 206 214 222 225 223 215 206 200 195 193 193 192 191 190 187 184 182 179 178 179 179 178 179 180 183 185 184 182 180 177 176 176 173 169 170 177 187 197 203 208 213 213 211 210 211 211 210 211 214 218 217 213 213 218 224 231 237 242 245 248 251 249 249 255 264 267 267 262 253 251 256
353 354 1 9 10 354 345 351 10 22 195 197 196 194 193 201 208 209 204 195 191 187 184 185 186 184 182 180 177 176 175 173 174 175 174 173 175 177 178 178 177 176 172 167 166 168 167 165 168 173 181 192 200 205 207 207 208 209 209 209 209 212 215 217 214 213 218 223 227 232 237 241 245 247 246 246 251 256 257 254 255 254 252 254 262
359 356 360 10 22 21 11 7 9 11 14 23 170 180 183 190 189 185 181 180 178 176 176 178 177 175 174 171 167 166 167 167 170 172 173 173 174 173 170 168 168 166 164 162 162 163 166 168 171 175 181 188 194 198 199 200 202 204 205 206 208 211 211 210 210 214 218 220 223 229 236 238 238 238 240 246 250 247 245 250 256 256 255 259 266
356 352 357 14 32 36 30 24 19 19 24 34 50 65 83 118 148 162 171 173 171 169 167 165 165 167 166 163 159 158 158 161 163 165 166 167 168 166 163 161 162 161 161 163 164 165 167 168 170 174 181 185 187 190 192 195 198 199 201 203 204 205 204 205 210 213 213 215 220 226 228 226 224 227 233 237 236 238 248 258 257 253 256 260 257
352 354 4 25 43 44 40 39 33 29 33 44 56 67 85 98 99 119 142 144 142 151 155 153 155 159 160 159 157 153 150 149 149 149 150 152 156 160 160 160 165 167 166 165 165 166 169 171 172 175 178 180 183 189 193 196 198 199 200 199 199 200 203 206 209 210 210 213 217 213 206 205 212 223 230 233 238 246 253 252 245 243 244 227 217
353 354 8 37 56 55 49 47 40 37 41 51 60 70 88 98 98 108 121 115 101 100 119 135 142 142 141 145 145 142 139 137 135 135 135 138 147 156 159 161 167 175 177 175 173 173 175 178 180 181 181 179 185 195 200 201 202 202 200 197 197 200 204 207 209 211 210 208 204 201 202 208 220 231 236 240 246 247 244 239 236 236 226 211 208
4 358 4 26 50 63 65 59 47 44 51 63 76 86 97 109 118 123 125 123 116 102 87 95 113 117 119 125 126 125 126 127 128 128 125 123 132 146 157 161 165 172 179 182 183 184 184 185 186 188 191 195 201 204 203 201 204 205 202 200 201 205 208 209 208 209 208 205 204 207 215 225 234 238 239 242 244 241 238 238 235 228 222 217 219
16 12 7 14 24 37 51 55 45 39 44 57 83 104 114 122 131 135 134 132 129 120 107 105 109 110 115 122 121 118 118 120 121 122 121 118 115 120 136 150 157 163 171 177 184 188 190 192 193 194 197 202 208 209 203 200 203 205 203 204 207 211 209 207 206 206 208 209 212 217 225 233 239 239 239 243 244 241 244 246 237 226 227 228 229